Weather History for Taos, NM

Change the Weather History Date:

Sunday, June 1, 2014

  Actual Average Record
Temperature  
Mean Temperature 66 °F -  
Max Temperature 82 °F 76 °F 91 °F (2002)
Min Temperature 51 °F 39 °F 32 °F (1999)
Cooling Degree Days 2    
Growing Degree Days 16 (Base 50)    
Moisture  
Dew Point 26 °F    
Average Humidity 24    
Maximum Humidity 47    
Minimum Humidity 10    
Precipitation  
Precipitation 0.00 in - - ()
Sea Level Pressure  
Sea Level Pressure 30.15 in    
Wind  
Wind Speed 11 mph (WSW)    
Max Wind Speed 28 mph    
Max Gust Speed 38 mph    
Visibility 10 miles    
Events      
Averages and records for this station are not official NWS values.
T = Trace of Precipitation, MM = Missing Value Source: NWS Daily Summary

Daily Weather History Graph

Daily Weather History Graph

Search for Another Location

Airport:

Trip Planner

Search our weather history database for the weather conditions in past years. The results will help you decide how hot, cold, wet, or windy it might be!

Date:

Astronomy

Jun. 01, 2014 Rise Set
Actual Time 5:46 AM MDT 8:15 PM MDT
Civil Twilight 5:16 AM MDT 8:45 PM MDT
Nautical Twilight 4:39 AM MDT 9:22 PM MDT
Astronomical Twilight 3:58 AM MDT 10:03 PM MDT
Moon 9:17 AM MDT (6/1) 11:16 PM MDT (6/1)
Length of Visible Light 15h 29m
Length of Day
14h 29m
Waxing Crescent, 15% of the Moon is Illuminated
Jun 1
Waxing Crescent
Jun 5
First Quarter
Jun 12
Full
Jun 19
Last Quarter
Jun 27
New

Hourly Weather History & Observations

Time (MDT) Temp. Dew Point Humidity Pressure Visibility Wind Dir Wind Speed Gust Speed Precip Events Conditions
12:15 AM 60.8 °F 37.4 °F 42% 30.14 in 10.0 mi East 9.2 mph - N/A   Mostly Cloudy
12:35 AM 62.6 °F 37.4 °F 39% 30.14 in 10.0 mi East 9.2 mph - N/A   Overcast
12:55 AM 62.6 °F 37.4 °F 39% 30.13 in 10.0 mi ESE 8.1 mph - N/A   Overcast
1:15 AM 62.6 °F 37.4 °F 39% 30.13 in 10.0 mi ESE 8.1 mph - N/A   Overcast
1:35 AM 62.6 °F 37.4 °F 39% 30.12 in 10.0 mi ESE 9.2 mph - N/A   Overcast
1:55 AM 62.6 °F 35.6 °F 37% 30.12 in 10.0 mi ESE 8.1 mph - N/A   Overcast
2:15 AM 62.6 °F 37.4 °F 39% 30.13 in 10.0 mi South 3.5 mph - N/A   Mostly Cloudy
2:35 AM 60.8 °F 35.6 °F 39% 30.13 in 10.0 mi NW 4.6 mph - N/A   Mostly Cloudy
2:55 AM 57.2 °F 35.6 °F 44% 30.13 in 10.0 mi North 5.8 mph - N/A   Mostly Cloudy
3:15 AM 55.4 °F 33.8 °F 44% 30.14 in 10.0 mi North 4.6 mph - N/A   Partly Cloudy
3:35 AM 55.4 °F 35.6 °F 47% 30.14 in 10.0 mi North 3.5 mph - N/A   Scattered Clouds
3:55 AM 55.4 °F 35.6 °F 47% 30.14 in 10.0 mi Calm Calm - N/A   Scattered Clouds
4:15 AM 57.2 °F 35.6 °F 44% 30.14 in 10.0 mi SSW 6.9 mph - N/A   Mostly Cloudy
4:35 AM 55.4 °F 35.6 °F 47% 30.15 in 10.0 mi SSW 9.2 mph - N/A   Mostly Cloudy
4:55 AM 55.4 °F 35.6 °F 47% 30.15 in 10.0 mi SSW 5.8 mph - N/A   Partly Cloudy
5:15 AM 55.4 °F 33.8 °F 44% 30.16 in 10.0 mi SW 5.8 mph - N/A   Scattered Clouds
5:35 AM 55.4 °F 33.8 °F 44% 30.16 in 10.0 mi WSW 4.6 mph - N/A   Scattered Clouds
5:55 AM 53.6 °F 32.0 °F 44% 30.17 in 10.0 mi WSW 5.8 mph - N/A   Clear
6:15 AM 55.4 °F 30.2 °F 38% 30.17 in 10.0 mi WSW 9.2 mph - N/A   Clear
6:35 AM 59.0 °F 30.2 °F 34% 30.17 in 10.0 mi WSW 8.1 mph - N/A   Clear
6:55 AM 60.8 °F 33.8 °F 36% 30.18 in 10.0 mi SW 4.6 mph - N/A   Clear
7:15 AM 62.6 °F 33.8 °F 34% 30.18 in 10.0 mi South 5.8 mph - N/A   Clear
7:35 AM 62.6 °F 35.6 °F 37% 30.18 in 10.0 mi SSE 6.9 mph - N/A   Clear
8:15 AM 68.0 °F 32.0 °F 26% 30.18 in 10.0 mi WSW 9.2 mph - N/A   Clear
8:35 AM 69.8 °F 32.0 °F 25% 30.18 in 10.0 mi SW 13.8 mph 18.4 mph N/A   Clear
8:55 AM 69.8 °F 30.2 °F 23% 30.18 in 10.0 mi SW 11.5 mph 19.6 mph N/A   Clear
9:15 AM 69.8 °F 30.2 °F 23% 30.18 in 10.0 mi SW 13.8 mph - N/A   Clear
9:35 AM 71.6 °F 30.2 °F 22% 30.18 in 10.0 mi WSW 11.5 mph 18.4 mph N/A   Clear
9:55 AM 71.6 °F 30.2 °F 22% 30.17 in 10.0 mi West 11.5 mph 19.6 mph N/A   Clear
10:15 AM 73.4 °F 28.4 °F 19% 30.17 in 10.0 mi West 10.4 mph 19.6 mph N/A   Clear
10:35 AM 73.4 °F 28.4 °F 19% 30.16 in 10.0 mi WSW 12.7 mph 23.0 mph N/A   Clear
10:55 AM 75.2 °F 28.4 °F 18% 30.16 in 10.0 mi SW 16.1 mph 20.7 mph N/A   Clear
11:15 AM 75.2 °F 28.4 °F 18% 30.16 in 10.0 mi West 19.6 mph 29.9 mph N/A   Clear
11:35 AM 75.2 °F 26.6 °F 17% 30.15 in 10.0 mi WSW 19.6 mph 29.9 mph N/A   Clear
11:55 AM 75.2 °F 26.6 °F 17% 30.16 in 10.0 mi WSW 16.1 mph 24.2 mph N/A   Partly Cloudy
12:15 PM 78.8 °F 24.8 °F 14% 30.15 in 10.0 mi West 20.7 mph 31.1 mph N/A   Partly Cloudy
12:35 PM 78.8 °F 24.8 °F 14% 30.14 in 10.0 mi WSW 25.3 mph 31.1 mph N/A   Clear
12:55 PM 78.8 °F 24.8 °F 14% 30.14 in 10.0 mi West 19.6 mph 35.7 mph N/A   Clear
1:15 PM 80.6 °F 23.0 °F 12% 30.14 in 10.0 mi West 26.5 mph 35.7 mph N/A   Clear
1:35 PM 80.6 °F 21.2 °F 11% 30.13 in 10.0 mi WSW 24.2 mph 31.1 mph N/A   Clear
1:55 PM 80.6 °F 21.2 °F 11% 30.13 in 10.0 mi WSW 25.3 mph 34.5 mph N/A   Clear
2:15 PM 80.6 °F 19.4 °F 10% 30.13 in 10.0 mi WSW 20.7 mph 32.2 mph N/A   Clear
2:35 PM 82.4 °F 21.2 °F 10% 30.12 in 10.0 mi WSW 27.6 mph 33.4 mph N/A   Clear
2:55 PM 80.6 °F 19.4 °F 10% 30.12 in 10.0 mi WSW 25.3 mph 38.0 mph N/A   Clear
3:15 PM 80.6 °F 19.4 °F 10% 30.12 in 10.0 mi West 25.3 mph 36.8 mph N/A   Clear
3:35 PM 82.4 °F 21.2 °F 10% 30.12 in 10.0 mi West 21.9 mph 34.5 mph N/A   Clear
4:15 PM 80.6 °F 21.2 °F 11% 30.11 in 10.0 mi WSW 20.7 mph 31.1 mph N/A   Clear
4:35 PM 80.6 °F 19.4 °F 10% 30.10 in 10.0 mi West 15.0 mph 31.1 mph N/A   Clear
4:55 PM 80.6 °F 19.4 °F 10% 30.11 in 10.0 mi WNW 16.1 mph 23.0 mph N/A   Clear
5:15 PM 80.6 °F 19.4 °F 10% 30.11 in 10.0 mi West 18.4 mph 27.6 mph N/A   Clear
5:35 PM 80.6 °F 19.4 °F 10% 30.11 in 10.0 mi West 18.4 mph 28.8 mph N/A   Clear
5:55 PM 78.8 °F 19.4 °F 11% 30.11 in 10.0 mi West 12.7 mph - N/A   Clear
6:15 PM 78.8 °F 19.4 °F 11% 30.10 in 10.0 mi West 23.0 mph 28.8 mph N/A   Clear
6:35 PM 78.8 °F 19.4 °F 11% 30.11 in 10.0 mi West 19.6 mph 28.8 mph N/A   Clear
6:55 PM 78.8 °F 17.6 °F 10% 30.11 in 10.0 mi WNW 15.0 mph 24.2 mph N/A   Clear
7:15 PM 77.0 °F 17.6 °F 11% 30.11 in 10.0 mi West 11.5 mph - N/A   Clear
7:35 PM 75.2 °F 17.6 °F 11% 30.12 in 10.0 mi WNW 15.0 mph 24.2 mph N/A   Clear
7:55 PM 73.4 °F 15.8 °F 11% 30.13 in 10.0 mi WNW 10.4 mph - N/A   Clear
8:15 PM 69.8 °F 12.2 °F 11% 30.13 in 10.0 mi NNW 8.1 mph - N/A   Clear
8:35 PM 64.4 °F 10.4 °F 12% 30.14 in 10.0 mi North 6.9 mph - N/A   Clear
9:15 PM 57.2 °F 12.2 °F 17% 30.16 in 10.0 mi North 9.2 mph - N/A   Clear
9:35 PM 55.4 °F 12.2 °F 18% 30.17 in 10.0 mi NNE 9.2 mph - N/A   Clear
9:55 PM 53.6 °F 12.2 °F 19% 30.18 in 10.0 mi NNE 9.2 mph - N/A   Clear
10:15 PM 51.8 °F 12.2 °F 21% 30.19 in 10.0 mi NNE 5.8 mph - N/A   Clear
10:35 PM 53.6 °F 14.0 °F 21% 30.19 in 10.0 mi Calm Calm - N/A   Clear
10:55 PM 51.8 °F 15.8 °F 24% 30.19 in 10.0 mi SE 4.6 mph - N/A   Clear
11:15 PM 57.2 °F 17.6 °F 21% 30.19 in 10.0 mi Calm Calm - N/A   Clear
11:35 PM 55.4 °F 14.0 °F 20% 30.19 in 10.0 mi Calm Calm - N/A   Clear
11:55 PM 57.2 °F 17.6 °F 21% 30.19 in 10.0 mi Calm Calm - N/A   Clear